Location: 22
(39.7117°N, 89.5929°W)
Time: 06:42:49
(UTC-05:00)

deb Explorer IX - Pass Details

Date: 28 April 2025
Orbit: 386 x 450 km, 38.6° (Epoch: 05 May)

Event Time Altitude Azimuth Distance (km) Brightness Sun altitude
Rises 20:16:29 0° 275° (W) 2,353 ? -5.6°
Reaches altitude 10° 20:18:50 10° 263° (W) 1,467 ? -6.0°
Maximum altitude 20:21:40 26° 203° (SSW) 815 ? -6.5°
Drops below altitude 10° 20:24:26 10° 144° (SE) 1,423 ? -7.0°
Enters shadow 20:24:58 - 140° (SE) 1,611 ? -7.0°
